Regional Weather Roundup
Issued by NWS Charleston, SC

Current Version | Previous Version | Graphics & Text | Print | Product List | Glossary On
Versions: 1 2 3 4 5 6 7 8 9 10 11 12 13 14 15 16 17 18 19 20 21 22 23 24 25 26 27 28 29 30 31 32 33 34 35 36 37 38 39 40 41 42 43 44 45 46 47 48 49 50
000 ASUS42 KCHS 191013 RWRCHS Regional Weather Roundup National Weather Service Charleston SC 500 AM EST MON FEB 19 2018 NOTE: "fair" indicates few or no clouds below 12,000 feet with no significant weather and/or obstructions to visibility. Not all stations are quality controlled. Use data with caution, especially dewpoint observations. SCZ027-030-031-034>040-042>050-191100- ...Southeast South Carolina... CITY SKY/WX TMP DP RH WIND PRES REMARKS N Charleston CLOUDY 58 55 90 NE8 30.34R Waterfront Prk N/A 57 56 96 N6 30.18S Mount Pleasant CLOUDY 57 55 94 NE5 30.34R FOG Johns Island CLOUDY 59 57 94 N6 30.34R Pinopolis N/A 55 54 94 E7 30.27R Moncks Corner CLOUDY 54 52 94 NE7 30.35R FOG Summerville CLOUDY 55 54 94 CALM 30.36R Beaufort MCAS CLOUDY 60 59 96 NE6 30.33R Beaufort Arpt CLOUDY 59 57 94 NE8 30.32R FOG Hilton Head Is FAIR 57 57 100 NE7 30.33R Walterboro FOG 54 54 100 NE3 30.35R VSB 1 Allendale CLOUDY 57 54 88 CALM 30.33R ...Southern Midlands and Pee Dee... CITY SKY/WX TMP DP RH WIND PRES REMARKS Georgetown CLOUDY 54 54 100 NE6 30.37S Kingstree CLOUDY 50 50 100 N5 30.38R Orangeburg CLOUDY 56 52 86 E6 30.36R Barnwell N/A 59 55 88 E5 30.34R Aiken CLOUDY 55 52 88 E3 30.37R Manning CLOUDY 54 32 43 MISG 30.37R Columbia CLOUDY 58 52 80 E8 30.36R Sumter CLOUDY 53 49 86 E7 30.35R Florence CLOUDY 49 48 97 NE8 30.40R FOG Myrtle Beach CLOUDY 52 50 93 NE6 30.38S N Myrtle Beach CLOUDY 53 49 86 N5 30.37R $$ GAZ063-065-086>088-099>101-113>116-118-119-134>141-150-191100- ...Southeast Georgia... CITY SKY/WX TMP DP RH WIND PRES REMARKS Savannah Arpt CLOUDY 60 59 96 NE8 30.32R Hunter AAF CLOUDY 58 56 91 NE5 30.29R Fort Stewart CLOUDY 59 57 94 CALM 30.30R Statesboro CLOUDY 61 54 78 CALM 30.33R Sylvania CLOUDY 60 58 92 CALM 30.34R Claxton CLOUDY 61 59 92 CALM 30.33R FOG ...CSRA, Central and far Southeast Georgia... CITY SKY/WX TMP DP RH WIND PRES REMARKS Thomson CLOUDY 57 55 91 S3 30.38R Augusta-Bush CLOUDY 58 53 84 E3 30.34R Augusta-Daniel CLOUDY 59 53 80 CALM 30.35R Swainsboro CLOUDY 61 59 94 CALM 30.33R FOG Vidalia CLOUDY 63 61 94 E5 30.32R Eastman CLOUDY 64 55 72 SE5 30.33R Hazlehurst CLOUDY 64 61 88 CALM 30.30R Alma CLOUDY 65 61 87 S3 30.30R Waycross CLOUDY 65 62 90 SE5 30.30R Jesup CLOUDY 63 59 88 CALM 30.32R FOG Baxley CLOUDY 61 61 100 CALM 30.30S Brunswick FOG 61 59 94 CALM 30.31R VSB 1/4 Saint Simons FOG 61 61 100 CALM 30.30R VSB 1/2 $$ SCZ027-028-034-036>038-045-046-048>050-GAZ119-141-191100- ...Lake and Supplemental Coastal Observations... STATION/POSITION TIME TEMP WIND PRES WAVE SWELL AIR SEA DIR/SP/G HT/PER HT/PER/DIR (UTC) (F) (DEG/KT/KT) (MB) (FT/S) (FT/S/D) Winyah Bay 0845 53 50/ 10 1028.0 Lake Murray 0920 56 CALM / 6 1027.1R ACE Basin NERRS 0845 58 20/ 2 1026.0 Fort Pulaski 0936 59 59 60/ 9/ 12 1026.7R Sapelo Island 0900 58 40/ 3 1025.0 $$ ANZ835-935-AMZ111-154-330-350-352-354-370-450-454-472-191100- ...C-MAN and Buoy Observations... STATION/POSITION TIME TEMP WIND PRES WAVE SWELL AIR SEA DIR/SP/G HT/PER HT/PER/DIR (UTC) (F) (DEG/KT/KT) (MB) (FT/S) (FT/S/D) Buoy 41004 0950 69 120/ 10/ 12 1026.8R 5/ 7 5/ 60/ 7 Buoy 41008 0950 59 58 40/ 6/ 6 1025.6R 3/ 6 3/ 30/ 6 Folly Beach CMAN 1000 57 40/ 13/ 14 1027.6R Capers Nearshore 0908 52 57 50/ 16/ 21 1026.4R Fripp Nearshore 0908 55 58 50/ 12/ 17 1025.7R STATION/POSITION TIME TEMP WIND PRES WAVE SWELL AIR SEA DIR/SP/G HT/PER HT/PER/DIR (UTC) (F) (DEG/KT/KT) (MB) (FT/S) (FT/S/D) 5E St. Marys GA 1000 58 N/A 2/10 Frying Pan Buoy 0950 68 140/ 10/ 12 1027.8R 5/ 6 5/ 60/ 6 Buoy 41025 1000 64 120/ 14/ 19 1031.1 Cape Lookout NC 0900 40/ 16/ 17 1030.0F Buoy 41002 0950 70 72 70/ 16/ 19 1028.6R 6/ 8 3/ 20/ 8 Buoy 41010 NOT AVBL St Augustine FL 1000 58 59 350/ 9/ 9 1025.6R $$

USA.gov is the U.S. government's official web portal to all federal, state and local government web resources and services.